Stations météo

réclame
Mon MeteoGroup
Stornoway, Grande-Bretagne (3026): Température de l'air & dewpoint: 29.05.2020 01:00:00 - 04.06.2020 01:00:00 (BST)Stornoway, Grande-Bretagne (3026): Température de l'air -20cm & Température de l'air -100cm: 29.05.2020 01:00:00 - 04.06.2020 01:00:00 (BST)Stornoway, Grande-Bretagne (3026): Vitesse du vent & gusts: 29.05.2020 01:00:00 - 04.06.2020 01:00:00 (BST)Stornoway, Grande-Bretagne (3026): Direction du vent: 29.05.2020 01:00:00 - 04.06.2020 01:00:00 (BST)Stornoway, Grande-Bretagne (3026): reduced air pressure: 29.05.2020 01:00:00 - 04.06.2020 01:00:00 (BST)Stornoway, Grande-Bretagne (3026): visibility: 29.05.2020 01:00:00 - 04.06.2020 01:00:00 (BST)Stornoway, Grande-Bretagne (3026): Ensoleillement: 29.05.2020 01:00:00 - 04.06.2020 01:00:00 (BST)Stornoway, Grande-Bretagne (3026): Quantités de précipitations: 29.05.2020 01:00:00 - 04.06.2020 01:00:00 (BST)
Date & Time tt [°C] td [°C] tt -20cm [°C] tt -100cm [°C] ff [km/h] ff [knt] fx [km/h] fx [knt] dd ppp [hPa] vv [km] sd [min] rr [mm]
04.06.2020 01:00:00 8,9 8,5 - - 11 6 - - WSW 1010,7 50 - 0,6
04.06.2020 00:00:00 8,5 8,0 - - 9 5 - - SW 1012,0 2,4 0 0,8
03.06.2020 23:00:00 8,2 7,1 - - 4 2 - - WSW 1013,4 3,8 0 0,2
03.06.2020 22:00:00 9,2 6,8 - - 9 5 - - WNW 1014,4 5 0 0,0
03.06.2020 21:00:00 9,9 5,2 - - 13 7 - - NW 1015,3 75 0 0,0
03.06.2020 20:00:00 10,2 5,1 - - 15 8 - - NNW 1016,0 75 0 0,0
03.06.2020 19:00:00 10,5 4,7 - - 18 10 - - NNW 1016,5 75 0 0,0
03.06.2020 18:00:00 11,4 5,8 - - 18 10 - - NNW 1017,3 60 0 0,0
03.06.2020 17:00:00 10,8 5,8 - - 16 9 - - N 1018,3 50 0 0,0
03.06.2020 16:00:00 10,3 6,0 - - 16 9 - - NE 1018,8 45 0 0,0
03.06.2020 15:00:00 10,3 5,6 - - 21 11 - - NE 1019,0 70 6 0,0
03.06.2020 14:00:00 11,1 5,6 - - 15 8 - - NE 1019,4 75 6 0,0
03.06.2020 13:00:00 10,4 5,2 - - 18 10 - - NE 1020,1 70 6 0,0
03.06.2020 12:00:00 10,9 5,4 - - 26 14 - - N 1020,4 60 6 0,0
03.06.2020 11:00:00 11,3 4,3 - - 22 12 - - NNE 1020,6 60 30 0,0
03.06.2020 10:00:00 11,0 5,1 13,2 10,9 28 15 - - NNE 1020,8 55 18 0,0
03.06.2020 09:00:00 10,7 5,3 - - 31 17 - - N 1021,0 40 0 0,0
03.06.2020 08:00:00 11,3 4,6 - - 31 17 - - NNE 1021,1 60 36 0,0
03.06.2020 07:00:00 10,1 6,3 - - 24 13 - - NNE 1021,4 60 0 0,0
03.06.2020 06:00:00 9,7 6,3 - - 22 12 - - N 1021,4 60 0 0,0
03.06.2020 05:00:00 9,3 6,0 - - 18 10 - - N 1021,6 40 0 0,0
03.06.2020 04:00:00 8,7 5,9 - - 26 14 - - N 1021,7 50 0 0,0
03.06.2020 03:00:00 10,1 6,9 - - 24 13 - - NNE 1022,1 30 0 0,0
03.06.2020 02:00:00 9,5 6,7 - - 21 11 - - N 1022,4 40 0 0,0
03.06.2020 01:00:00 9,6 6,1 - - 29 16 - - NE 1022,3 50 - 0,0
03.06.2020 00:00:00 9,9 6,6 - - 29 16 - - NE 1022,5 55 0 0,0
02.06.2020 23:00:00 9,9 6,3 - - 35 19 46 25 NE 1022,5 40 0 0,0
02.06.2020 22:00:00 10,1 6,7 - - 35 19 - - NE 1022,2 45 0 0,0
02.06.2020 21:00:00 10,4 7,1 - - 35 19 - - NE 1021,9 45 12 0,0
02.06.2020 20:00:00 10,9 7,7 - - 34 18 - - NE 1021,7 45 0 0,0
02.06.2020 19:00:00 11,2 8,5 - - 31 17 - - NE 1021,7 40 6 0,0
02.06.2020 18:00:00 11,4 8,4 - - 34 18 - - NE 1021,7 45 0 0,0
02.06.2020 17:00:00 11,4 9,5 - - 29 16 - - NE 1021,7 50 0 0,0
02.06.2020 16:00:00 12,1 10,4 - - 26 14 - - NE 1021,7 60 0 0,0
02.06.2020 15:00:00 12,3 10,9 - - 22 12 - - NE 1021,8 30 0 0,0
02.06.2020 14:00:00 12,3 10,7 - - 22 12 - - NE 1021,8 45 0 0,0
02.06.2020 13:00:00 12,4 10,7 - - 21 11 - - NE 1022,1 40 0 0,0
02.06.2020 12:00:00 12,4 10,7 - - 18 10 - - NE 1022,2 50 0 0,0
02.06.2020 11:00:00 12,6 11,2 - - 15 8 - - NE 1022,4 35 0 0,0
02.06.2020 10:00:00 12,1 11,2 - - 16 9 - - NNE 1022,7 29 0 -
02.06.2020 09:00:00 11,7 11,0 - - 16 9 - - NNE 1022,9 15 0 -
02.06.2020 08:00:00 11,4 10,7 - - 16 9 - - NNE 1023,1 17 0 0,0
02.06.2020 07:00:00 11,4 10,7 - - 18 10 - - NE 1022,6 10 0 0,4
02.06.2020 06:00:00 11,4 10,8 - - 16 9 - - NNE 1023,0 13 0 0,0
02.06.2020 05:00:00 11,4 10,8 - - 15 8 - - NNE 1023,3 10 0 0,0
02.06.2020 04:00:00 11,4 10,9 - - 11 6 - - NNE 1023,5 11 0 0,0
02.06.2020 03:00:00 11,2 10,6 - - 5 3 - - ENE 1023,9 6 0 0,0
02.06.2020 02:00:00 11,2 10,6 - - 9 5 - - E 1024,3 9 0 0,0
02.06.2020 01:00:00 11,4 10,7 - - 15 8 - - NE 1024,7 8 - 0,2
02.06.2020 00:00:00 11,5 10,6 - - 21 11 - - NE 1025,0 15 0 0,0
01.06.2020 23:00:00 11,3 10,4 - - 16 9 - - N 1025,4 16 0 0,0
01.06.2020 22:00:00 12,2 11,5 - - 16 9 - - NW 1025,5 45 0 0,0
01.06.2020 21:00:00 12,0 11,3 - - 11 6 - - ENE 1025,2 22 0 0,0
01.06.2020 20:00:00 12,4 11,6 - - 9 5 - - NE 1024,9 29 36 0,0
01.06.2020 19:00:00 12,8 11,6 - - 15 8 - - NE 1025,1 3,9 60 0,0
01.06.2020 18:00:00 12,5 11,6 - - 18 10 - - ENE 1025,3 2,8 48 0,0
01.06.2020 17:00:00 13,8 12,2 - - 21 11 - - NE 1025,6 1,1 60 0,0
01.06.2020 16:00:00 15,5 13,0 - - 16 9 - - NE 1025,8 50 60 0,0
01.06.2020 15:00:00 16,4 11,9 - - 22 12 - - NE 1025,7 45 60 0,0
01.06.2020 14:00:00 17,3 11,9 - - 16 9 - - ENE 1025,6 50 60 0,0
01.06.2020 13:00:00 17,0 10,9 - - 16 9 - - E 1025,9 60 60 0,0
01.06.2020 12:00:00 16,8 11,7 - - 18 10 - - SSE 1025,9 55 60 0,0
01.06.2020 11:00:00 16,3 11,4 - - 16 9 - - SSE 1026,1 70 60 0,0
01.06.2020 10:00:00 15,6 10,5 13,5 10,4 13 7 - - SSE 1025,9 75 60 0,0
01.06.2020 09:00:00 15,2 10,7 - - 9 5 - - SSE 1025,9 70 60 0,0
01.06.2020 08:00:00 15,1 12,6 - - 2 1 - - ENE 1025,8 60 60 0,0
01.06.2020 07:00:00 11,5 10,5 - - 2 1 - - ENE 1025,6 55 12 0,0
01.06.2020 06:00:00 9,1 8,2 - - 5 3 - - ENE 1025,2 35 0 0,0
01.06.2020 05:00:00 8,8 7,9 - - 4 2 - - ENE 1025,1 45 0 0,0
01.06.2020 04:00:00 9,4 8,5 - - 2 1 - - ENE 1025,3 45 0 0,0
01.06.2020 03:00:00 9,5 8,4 - - 2 1 - - ENE 1025,3 45 0 0,0
01.06.2020 02:00:00 10,2 9,1 - - 2 1 - - ENE 1025,6 55 0 0,0
01.06.2020 01:00:00 11,5 10,2 - - 5 3 - - ENE 1025,7 45 - 0,0
01.06.2020 00:00:00 12,3 9,3 - - 5 3 - - ENE 1025,7 55 0 0,0
31.05.2020 23:00:00 12,6 9,4 - - 9 5 - - E 1025,5 65 0 0,0
31.05.2020 22:00:00 14,0 10,1 - - 11 6 - - E 1025,1 50 0 0,0
31.05.2020 21:00:00 14,8 10,5 - - 13 7 - - ENE 1024,8 75 30 0,0
31.05.2020 20:00:00 14,5 11,1 - - 13 7 - - E 1024,6 75 30 0,0
31.05.2020 19:00:00 17,0 11,2 - - 9 5 - - NE 1024,4 75 54 0,0
31.05.2020 18:00:00 19,9 9,9 - - 9 5 - - ESE 1024,2 75 60 0,0
31.05.2020 17:00:00 20,4 8,3 - - 11 6 - - S 1024,4 65 54 0,0
31.05.2020 16:00:00 20,4 9,0 - - 11 6 - - SSE 1024,6 75 60 0,0
31.05.2020 15:00:00 20,6 9,1 - - 15 8 - - SSE 1024,6 75 60 0,0
31.05.2020 14:00:00 19,7 8,6 - - 11 6 - - SSE 1024,7 75 60 0,0
31.05.2020 13:00:00 18,5 8,2 - - 15 8 - - SE 1024,8 75 60 0,0
31.05.2020 12:00:00 17,8 9,6 - - 15 8 - - SSE 1024,7 75 60 0,0
31.05.2020 11:00:00 16,7 9,8 - - 15 8 - - SSE 1024,6 75 60 0,0
31.05.2020 10:00:00 15,6 9,2 13,2 10,2 13 7 - - SSE 1024,5 75 60 0,0
31.05.2020 09:00:00 14,6 9,1 - - 18 10 - - SSE 1024,4 75 60 0,0
31.05.2020 08:00:00 14,6 10,2 - - 16 9 - - SSE 1024,0 75 60 0,0
31.05.2020 07:00:00 13,3 11,0 - - 13 7 - - S 1023,7 75 54 0,0
31.05.2020 06:00:00 12,6 10,4 - - 16 9 - - S 1023,4 75 6 0,0
31.05.2020 05:00:00 11,6 9,7 - - 9 5 - - SSW 1023,0 75 0 0,0
31.05.2020 04:00:00 10,6 8,9 - - 9 5 - - NNE 1022,9 60 0 0,0
31.05.2020 03:00:00 10,6 8,3 - - 5 3 - - NE 1023,0 75 0 0,0
31.05.2020 02:00:00 11,4 9,3 - - 8 4 - - NE 1023,1 70 0 0,0
31.05.2020 01:00:00 12,1 10,0 - - 4 2 - - NE 1023,3 60 - 0,0
31.05.2020 00:00:00 12,9 10,6 - - 11 6 - - ENE 1023,1 55 0 0,0
30.05.2020 23:00:00 13,2 10,7 - - 9 5 - - E 1023,0 60 0 0,0
30.05.2020 22:00:00 15,4 11,1 - - 11 6 - - ENE 1022,7 75 0 0,0
30.05.2020 21:00:00 15,6 11,4 - - 13 7 - - ENE 1022,4 75 24 0,0
30.05.2020 20:00:00 17,2 11,5 - - 8 4 - - ENE 1022,3 75 54 0,0
30.05.2020 19:00:00 18,8 10,9 - - 4 2 - - NE 1022,3 75 54 0,0
30.05.2020 18:00:00 19,7 9,9 - - 11 6 - - SSE 1022,6 75 48 0,0
30.05.2020 17:00:00 18,5 12,7 - - 4 2 - - ENE 1022,8 65 48 0,0
30.05.2020 16:00:00 22,4 11,2 - - 11 6 - - SSE 1023,0 75 60 0,0
30.05.2020 15:00:00 21,3 11,6 - - 13 7 - - SE 1023,1 60 60 0,0
30.05.2020 14:00:00 20,0 10,9 - - 13 7 - - S 1023,5 60 60 0,0
30.05.2020 13:00:00 20,2 10,1 - - 13 7 - - S 1023,5 75 54 0,0
30.05.2020 12:00:00 19,5 9,2 - - 11 6 - - S 1023,5 75 60 0,0
30.05.2020 11:00:00 18,5 9,7 - - 11 6 - - SSE 1023,5 75 48 0,0
30.05.2020 10:00:00 18,0 9,7 12,7 9,9 13 7 - - S 1023,5 75 60 0,0
30.05.2020 09:00:00 16,7 8,8 - - 9 5 - - SSE 1023,3 75 60 0,0
30.05.2020 08:00:00 16,0 9,1 - - 13 7 - - SSE 1023,4 75 48 0,0
30.05.2020 07:00:00 13,8 9,5 - - 9 5 - - SSE 1023,3 75 0 0,0
30.05.2020 06:00:00 13,1 9,5 - - 8 4 - - S 1022,9 55 0 0,0
30.05.2020 05:00:00 12,1 9,8 - - 8 4 - - NW 1022,7 75 0 0,0
30.05.2020 04:00:00 13,0 10,7 - - 8 4 - - SE 1022,7 75 0 0,0
30.05.2020 03:00:00 11,5 10,1 - - 9 5 - - WSW 1022,5 60 0 0,0
30.05.2020 02:00:00 12,4 11,0 - - 5 3 - - SSE 1022,6 35 0 0,0
30.05.2020 01:00:00 13,1 11,2 - - 2 1 - - W 1022,6 40 - 0,0
30.05.2020 00:00:00 13,7 11,5 - - 4 2 - - W 1022,5 55 0 0,0
29.05.2020 23:00:00 14,1 11,3 - - 4 2 - - ENE 1022,4 55 0 0,0
29.05.2020 22:00:00 15,0 11,3 - - 8 4 - - SE 1022,3 55 24 0,0
29.05.2020 21:00:00 16,2 12,5 - - 2 1 - - N 1022,3 60 6 0,0
29.05.2020 20:00:00 17,8 11,4 - - 11 6 - - SSE 1022,2 60 0 0,0
29.05.2020 19:00:00 18,8 11,4 - - 15 8 - - SSE 1022,6 70 0 0,0
29.05.2020 18:00:00 20,4 12,0 - - 11 6 - - SE 1022,5 75 48 0,0
29.05.2020 17:00:00 20,9 12,5 - - 15 8 - - SSE 1022,9 65 60 0,0
29.05.2020 16:00:00 21,9 12,3 - - 16 9 - - SSW 1023,0 55 60 0,0
29.05.2020 15:00:00 20,2 13,3 - - 15 8 - - S 1023,7 65 60 0,0
29.05.2020 14:00:00 19,5 12,4 - - 16 9 - - SSE 1024,0 75 60 0,0
29.05.2020 13:00:00 19,2 12,9 - - 15 8 - - SSE 1024,5 65 60 0,0
29.05.2020 12:00:00 17,7 12,3 - - 15 8 - - SSE 1025,1 75 60 0,0
29.05.2020 11:00:00 16,8 12,3 - - 13 7 - - SSE 1025,4 75 60 0,0
29.05.2020 10:00:00 15,3 12,3 11,7 9,7 13 7 - - SSE 1025,6 75 60 0,0
29.05.2020 09:00:00 13,6 12,0 - - 13 7 - - SSE 1025,7 75 54 0,0
29.05.2020 08:00:00 13,6 12,4 - - 9 5 - - S 1025,8 75 60 0,0
29.05.2020 07:00:00 12,5 12,1 - - 11 6 - - SSE 1025,8 70 54 0,0
29.05.2020 06:00:00 11,1 10,7 - - 9 5 - - SSE 1026,1 55 12 0,0
29.05.2020 05:00:00 10,4 9,9 - - 5 3 - - SSE 1026,3 45 0 0,0
29.05.2020 04:00:00 10,9 10,5 - - 5 3 - - SSE 1026,5 60 0 0,0
29.05.2020 03:00:00 11,4 11,1 - - 11 6 - - SSE 1026,9 70 0 0,0
29.05.2020 02:00:00 9,6 9,1 - - 8 4 - - NE 1027,3 21 0 0,0
29.05.2020 01:00:00 9,9 9,3 - - 5 3 - - NNE 1027,7 21 - 0,0

tt = Température de l'air
td = dewpoint
tt -20cm = Température de l'air -20cm
tt -100cm = Température de l'air -100cm
ff = Vitesse du vent
fx = gusts
dd = Direction du vent
ppp = reduced air pressure
vv = visibility
sd = Ensoleillement
rr = Quantités de précipitations

stations d'obs. à proximité